Погода в Дисуке

Египет     31°08′02″N   30°38′40″E
темп.,
°C
ветер,
м/с
пор.,
м/с
влажн.,
%
обл.,
%
осадки,
мм/ч
давл.,
гПа
погр.,
м
10 августа, ср
ср1023:00+24сз22800 0.0 100945
02:00+23зсз12830 0.0 100833
05:00+23з12860 0.0 100830
08:00+28з33590 0.0 1008845
11:00+34сз54340 0.0 10071954
14:00+35сз65320 0.0 10071985
17:00+31сз66430 0.0 10061092
20:00+25ссз35770 0.0 1007129
11 августа, чт
чт1123:00+24сз12830 0.0 100727
02:00+23з11870 0.0 100727
05:00+23з11900 0.0 100727
08:00+28ссз12580 0.0 1008850
11:00+34с33320 0.0 10071874
14:00+33с75380 0.0 10071217
17:00+30с66420 0.0 1007945
20:00+25ссв33680 0.0 100866
12 августа, пт
пт1223:00+23св12740 0.0 100822
02:00+22ююз11790 0.0 100816
05:00+21зюз11830 0.0 100817
08:00+28зсз23550 0.0 1008733
11:00+33ссз54360 0.0 10081726
14:00+33ссз76390 0.0 10081620
17:00+30ссз66540 0.0 1008949
20:00+25сз36770 0.0 1009158
13 августа, сб
сб1323:00+24зсз24800 0.0 100974
02:00+23сз23860 0.0 100859
05:00+23сз23810 0.0 100866
08:00+29ссз45560 0.0 1009913
11:00+34сз66340 0.0 10081648
14:00+34ссз77340 0.0 10081571
17:00+30сз78470 0.0 1008935
20:00+25ссз47670 0.0 1009240
14 августа, вс
вс1423:00+24зсз35740 0.0 1008124
02:00+24сз35740 0.0 1007102
05:00+23сз34780 0.0 100772
08:00+29сз56480 0.0 1008940
11:00+33ссз66330 0.0 10081499
14:00+34ссз66320 0.0 10071519
17:00+31ссз66420 0.0 10071048
20:00+25сз35780 0.0 1008112